Theta_e
289 284 282 287 290 291 289 287 287 292 296 295 295 296 299 301 301 302 303 305 306 307 310 311 311 312 312 312 312 313 313 320 332 332 330 329 332 332 332 334 335 335 335 334
284 281 288 290 290 289 288 285 285 290 294 292 291 291 294 297 298 300 302 303 304 304 305 308 309 311 310 311 312 312 313 323 332 333 330 330 330 331 332 333 335 336 335 334
282 285 290 289 287 286 286 285 286 287 292 293 291 289 293 297 297 299 300 301 303 305 306 307 308 308 308 309 311 313 313 324 329 330 328 326 326 326 326 329 331 333 334 334
283 288 287 285 285 287 282 289 290 290 287 282 289 281 290 294 295 297 297 298 301 301 304 305 305 306 308 310 312 319 322 327 330 329 327 328 325 325 324 328 329 331 333 332
285 284 284 284 285 288 285 290 288 289 285 283 285 281 288 289 290 292 296 298 299 301 302 302 303 306 308 308 319 325 328 330 330 329 329 326 323 322 323 325 326 327 328 330
290 292 288 286 289 289 291 288 286 285 283 277 284 283 285 287 290 293 295 297 298 298 299 301 303 304 306 319 327 330 329 327 328 328 326 325 323 323 323 322 323 324 325 327
289 287 291 290 284 287 285 280 275 274 274 276 285 283 286 289 293 294 296 297 298 299 299 300 301 311 317 325 328 330 328 325 326 325 325 325 324 324 324 323 322 322 322 324
283 279 286 292 286 282 282 281 275 274 274 276 285 281 286 293 296 297 297 297 298 298 298 299 303 315 324 327 329 327 326 324 324 325 324 324 324 324 323 322 323 322 323 325
283 282 292 293 292 289 284 279 285 278 279 276 280 285 290 294 295 296 296 297 297 298 298 311 320 323 325 326 326 325 324 323 323 323 323 322 323 323 322 322 323 323 323 325
287 280 289 292 294 292 286 287 278 276 273 273 278 281 283 289 291 295 296 296 297 299 312 319 322 323 323 323 324 323 324 323 322 323 324 323 323 323 322 323 322 323 323 324
288 282 285 288 285 283 284 281 282 279 278 275 276 279 289 290 292 293 295 303 304 304 315 320 322 324 321 323 322 322 322 322 322 323 323 323 322 322 322 322 323 323 322 324
289 284 280 283 288 290 286 284 284 279 278 279 278 279 291 291 293 295 298 305 312 311 318 320 321 323 321 321 321 322 322 322 323 323 323 322 322 322 321 322 323 322 323 325
288 282 277 279 284 288 284 286 285 283 282 278 276 279 292 294 295 297 297 304 313 316 318 319 322 323 321 320 321 322 322 322 322 323 322 321 321 320 321 322 322 322 323 324
292 285 281 275 279 284 282 285 287 286 279 280 282 284 290 292 293 296 298 303 312 316 319 320 322 322 321 321 321 322 321 323 322 323 321 320 320 321 321 322 321 321 323 323
287 282 283 284 286 286 285 285 286 285 285 282 285 286 290 293 294 297 300 308 314 316 319 320 320 321 320 320 321 321 321 322 323 323 321 321 321 321 321 321 321 322 323 324
291 283 283 282 286 286 284 286 286 286 287 287 288 287 295 296 298 302 306 310 314 316 318 320 321 321 321 321 321 321 320 321 324 323 322 323 323 322 321 321 323 324 326 326
287 285 279 277 284 284 279 284 286 287 289 288 284 289 295 298 301 302 306 310 314 317 319 320 321 322 322 322 322 319 319 321 324 324 325 326 324 323 322 322 323 324 325 326
287 285 283 277 280 272 284 294 294 289 290 291 291 293 299 303 306 308 312 311 315 318 320 321 321 322 322 321 320 318 319 322 324 326 327 325 324 322 322 321 323 323 324 323
289 286 280 276 277 283 287 291 290 289 288 295 298 300 303 305 306 307 314 315 315 318 320 321 322 321 321 320 318 319 319 322 324 326 325 324 323 322 321 320 319 321 321 320
289 289 283 281 276 274 287 287 294 294 286 299 301 301 302 302 297 303 312 316 316 318 320 320 322 321 319 317 317 319 319 322 324 325 324 325 323 322 321 320 319 321 321 320
285 284 280 281 279 283 291 292 293 286 286 299 302 301 301 299 303 308 313 315 318 319 319 321 321 320 319 315 318 318 319 321 325 326 325 325 323 322 322 321 321 321 321 321
284 282 282 283 280 279 290 290 289 294 295 301 302 303 302 303 306 311 315 316 317 318 318 321 320 318 316 317 319 318 319 322 324 325 324 323 322 324 322 321 322 322 322 320
283 286 283 284 284 291 290 290 293 295 297 302 303 304 304 305 306 310 313 314 316 319 319 321 321 317 315 317 319 318 320 321 323 323 322 322 322 323 322 321 320 320 320 319
289 294 288 288 291 293 294 298 299 302 302 305 305 306 307 308 308 311 314 314 315 319 320 320 317 316 314 317 318 320 318 321 322 321 321 322 322 321 323 323 321 320 319 319
290 290 290 289 292 295 296 298 301 302 305 305 309 310 310 309 309 311 313 314 315 317 320 318 317 316 316 316 316 316 317 321 321 321 322 322 321 322 322 320 318 321 321 320
291 291 289 288 294 295 296 300 302 301 304 305 305 307 309 307 308 310 310 314 316 317 320 318 316 316 316 316 315 315 318 321 321 320 322 322 322 323 321 317 314 296 301 302
Wind_Speed
4 4 14 11 10 9 6 3 2 1 2 3 16 21 17 12 13 15 18 18 18 18 17 14 9 11 10 10 9 11 7 8 9 6 6 4 6 6 6 6 9 9 9 11
5 9 7 4 6 9 9 2 4 5 9 4 6 13 13 10 13 15 17 17 14 12 10 11 11 12 9 11 12 10 8 7 7 7 3 3 5 3 5 5 7 8 9 10
7 8 3 5 5 5 4 5 3 7 9 10 9 17 16 13 11 15 15 15 14 16 16 15 12 11 10 10 11 9 7 9 8 8 7 5 6 5 3 3 4 5 8 9
6 7 7 7 5 11 11 4 1 3 3 7 3 12 16 16 21 15 12 15 15 11 13 13 10 12 13 14 6 6 6 9 9 9 8 11 5 6 4 4 3 5 7 7
10 7 3 4 6 7 6 11 8 4 4 4 6 5 14 4 13 9 14 18 19 21 15 14 13 14 14 7 6 4 7 9 12 9 10 8 6 3 4 6 8 5 4 5
12 9 5 7 8 5 4 5 4 3 3 6 7 8 24 11 18 14 8 13 11 9 11 11 11 8 8 2 4 5 7 6 9 9 10 11 11 9 8 5 6 3 2 3
9 11 13 6 4 2 4 5 1 1 3 10 14 10 25 3 7 6 8 10 9 9 10 10 8 7 3 5 7 7 8 8 7 10 9 10 10 10 11 8 6 7 4 3
5 4 7 8 11 8 7 9 5 6 6 4 7 15 11 13 15 12 9 11 10 10 9 9 7 5 7 9 10 9 9 9 8 8 8 8 8 6 5 5 6 4 3 4
5 1 6 6 2 10 5 5 9 3 3 1 6 8 10 12 20 8 7 8 11 11 8 4 2 6 9 8 8 10 11 10 8 8 9 8 7 8 8 7 5 4 4 4
4 6 5 4 4 11 5 5 5 1 5 5 6 6 8 8 9 5 9 11 12 10 2 4 6 9 6 7 8 9 10 10 8 8 8 7 8 8 7 6 6 6 5 5
2 0 4 2 4 5 1 1 2 3 5 4 3 6 7 4 5 7 9 9 11 11 8 9 9 9 8 8 9 9 11 12 9 9 9 10 7 7 6 6 5 5 5 6
2 1 4 7 6 4 2 3 2 5 6 7 3 9 5 5 4 6 13 15 9 3 7 10 12 12 9 9 10 10 9 10 9 8 9 8 7 6 6 6 5 5 6 4
1 1 4 6 3 5 3 3 4 2 1 5 5 8 5 10 15 13 14 9 4 2 6 9 12 10 9 9 10 10 9 9 8 9 9 6 6 6 6 6 5 5 5 4
3 4 5 5 2 2 4 8 9 5 4 7 15 12 22 22 14 17 20 9 2 4 7 7 11 9 9 8 10 9 7 8 8 8 7 7 6 6 5 5 5 5 5 5
6 7 6 9 11 10 11 13 14 15 12 10 3 3 14 15 17 16 12 8 5 6 7 8 8 10 9 9 8 8 8 7 7 7 6 6 5 6 6 5 5 5 4 4
2 3 2 10 11 14 16 15 18 18 18 17 15 14 17 18 12 9 14 11 8 8 9 7 8 9 11 11 9 8 8 7 7 6 6 6 6 5 5 5 4 4 4 5
4 2 1 6 5 7 10 19 20 20 15 11 15 7 15 11 12 12 12 8 9 11 11 11 10 10 10 11 10 10 8 6 6 6 6 6 6 6 5 5 4 4 5 6
7 7 3 4 1 6 5 4 10 20 15 14 9 10 5 9 14 15 6 8 7 10 11 11 9 7 6 6 7 7 8 7 6 6 7 7 7 6 5 5 4 4 3 6
15 9 3 3 4 9 12 2 6 5 2 9 6 11 9 11 12 7 6 3 4 8 9 9 10 8 6 7 7 9 7 7 6 6 7 7 7 7 6 5 5 3 5 4
13 13 7 4 5 6 3 2 10 7 4 5 4 8 10 9 5 6 4 4 3 5 10 11 9 7 8 6 7 9 8 7 6 6 7 7 7 7 7 6 6 3 3 4
1 4 12 9 5 7 8 12 10 6 0 8 7 8 11 6 6 3 3 4 2 2 8 11 12 11 10 8 9 8 8 9 7 6 6 6 6 6 6 5 3 4 4 5
3 4 2 4 4 5 10 10 6 6 11 11 9 9 12 12 13 6 4 3 2 4 8 14 12 10 8 9 10 8 10 7 7 7 7 6 6 5 5 6 4 4 6 6
3 2 4 2 2 4 7 12 16 18 14 9 10 12 10 13 6 4 5 4 6 3 10 12 12 11 9 10 10 10 8 8 8 7 6 6 6 5 5 6 5 4 4 6
4 0 3 5 3 10 6 11 12 11 10 10 10 10 9 6 6 3 5 6 6 2 6 6 12 11 10 10 10 10 9 8 9 7 6 6 6 6 5 4 4 4 5 5
3 5 6 4 6 13 5 13 13 15 16 17 11 5 7 4 5 5 6 7 6 8 1 6 10 11 11 11 10 8 9 10 8 6 6 6 5 6 6 4 2 3 2 5
2 4 4 3 12 7 9 12 14 16 16 15 12 11 11 4 9 11 11 10 14 8 3 4 6 7 7 10 10 9 9 10 10 7 6 6 6 4 5 5 4 7 2 8
Wind_Direction
266 196 221 229 241 257 43 72 55 323 264 283 223 250 253 250 259 257 264 261 264 272 278 280 275 273 281 282 268 247 216 193 159 150 153 151 182 168 156 166 183 176 179 170
341 261 260 246 202 243 271 263 256 266 260 212 275 277 280 262 258 256 256 259 257 259 271 265 262 263 262 262 269 270 235 177 177 158 133 143 123 132 144 169 173 175 168 165
196 253 338 266 230 230 202 216 207 225 294 282 302 282 272 261 234 248 252 258 254 248 255 258 260 256 268 259 261 263 211 179 158 137 118 97 87 81 105 162 160 167 163 170
213 254 232 223 232 223 242 178 247 326 163 258 24 289 270 270 263 248 250 251 260 244 240 254 249 263 262 262 262 237 178 154 143 148 133 153 139 155 185 147 130 139 158 157
236 197 219 240 211 185 243 199 225 221 252 269 256 310 282 242 266 270 252 254 251 251 247 246 242 246 260 268 241 191 149 141 145 151 146 144 119 106 116 110 116 123 132 131
249 252 202 216 240 203 204 179 164 158 144 253 204 192 279 247 247 254 260 252 255 253 253 250 253 255 265 215 141 139 139 126 136 142 136 136 134 133 125 115 133 126 112 140
285 234 227 200 244 235 160 101 139 72 175 232 179 183 237 262 307 241 277 283 264 257 268 263 259 254 236 196 169 140 132 121 134 121 126 126 128 130 137 140 137 142 140 138
284 179 171 190 199 201 184 161 176 178 182 219 198 227 249 233 254 277 282 263 282 274 252 259 265 199 179 174 146 122 124 117 107 115 115 111 118 124 121 132 136 127 132 145
330 153 356 18 350 169 199 168 211 25 282 193 212 280 289 284 286 290 289 303 290 290 296 285 159 158 152 131 119 127 121 106 111 117 114 108 118 124 125 114 113 128 131 136
294 293 134 196 102 303 178 184 105 332 205 247 255 258 234 319 286 355 324 301 297 281 157 163 156 143 114 113 112 107 106 114 117 114 112 114 113 108 113 120 128 138 128 122
288 174 312 335 202 185 150 299 199 171 182 208 303 266 220 249 70 333 302 317 297 293 168 158 146 123 112 109 109 108 111 115 113 111 111 113 114 113 115 119 129 138 130 134
321 5 283 264 290 345 338 257 229 200 254 253 130 277 332 113 65 8 347 328 331 34 151 149 135 124 113 111 114 113 120 122 123 122 118 117 115 116 116 122 135 139 130 135
334 309 312 322 349 26 85 315 268 225 150 220 223 243 279 328 1 350 337 332 331 138 142 142 131 127 127 123 124 128 129 128 124 123 119 117 124 124 129 137 141 141 137 149
252 216 217 219 292 346 298 296 299 272 254 252 243 290 298 304 337 335 322 322 205 154 157 153 135 131 130 130 134 135 128 134 128 128 129 132 137 134 133 136 143 145 151 153
180 228 219 243 260 267 258 268 270 262 256 248 333 291 288 305 309 297 291 317 195 162 156 163 152 139 134 135 135 134 137 134 134 133 131 142 141 129 127 132 153 159 158 171
163 265 258 279 262 244 251 258 257 251 245 255 257 269 272 278 282 286 293 315 205 186 166 158 156 153 151 151 150 144 145 142 140 133 143 148 143 134 142 147 154 164 146 135
195 238 273 268 264 322 286 245 236 242 237 217 233 223 260 284 290 280 284 298 213 189 173 162 165 168 167 160 156 154 149 138 138 146 147 137 138 141 149 145 135 138 133 121
199 195 215 264 11 244 226 341 299 244 229 220 248 248 229 267 276 274 263 274 206 183 172 160 157 147 176 152 145 130 134 143 145 146 146 146 149 147 148 135 131 115 126 119
211 200 250 229 220 286 297 40 349 355 220 220 244 262 282 298 285 271 230 272 186 168 160 162 154 144 151 165 149 137 131 143 147 160 153 151 151 146 147 143 136 131 117 116
215 215 194 179 244 258 135 261 335 296 278 82 299 286 279 298 226 246 192 205 229 153 154 148 141 137 144 165 143 140 141 152 170 159 158 154 155 156 159 153 152 143 120 132
142 196 225 233 241 275 16 327 306 202 278 320 305 299 284 252 237 288 292 222 246 142 161 143 147 159 169 146 144 151 147 177 177 147 149 150 152 157 153 143 135 143 136 129
305 318 256 213 237 248 8 319 299 341 314 293 308 302 288 280 281 237 227 169 34 337 166 151 153 152 148 150 152 151 176 173 148 152 154 151 142 147 144 142 124 142 137 130
317 266 291 244 296 256 280 264 275 278 278 287 308 300 280 289 267 223 201 74 20 281 176 160 157 148 148 159 165 167 190 147 149 146 150 143 137 138 144 138 139 139 126 141
279 22 269 291 259 307 263 330 309 305 290 332 324 281 289 275 264 175 148 70 61 61 129 164 139 154 159 165 171 182 154 150 149 150 147 144 141 139 136 127 134 134 144 154
249 314 297 254 286 322 339 331 320 339 3 3 356 357 341 292 59 40 75 85 59 49 117 154 153 165 172 169 169 153 157 150 149 143 150 144 140 149 125 94 108 148 150 162
280 301 330 323 301 300 290 312 357 358 355 10 0 6 353 312 56 58 41 31 39 22 55 118 142 144 162 170 164 149 157 152 143 142 150 155 151 148 134 139 126 44 76 152